Regional Weather Roundup
Issued by NWS

Home | Current Version | Previous Version | Text Only | Print | Product List | Glossary On
Versions: 1 2 3 4 5 6 7 8 9 10 11 12 13 14 15 16 17 18 19 20 21 22 23 24 25 26 27 28 29 30 31 32 33 34 35 36 37 38 39 40 41 42 43 44 45 46 47 48 49 50
000
ASUS43 KOAX 261410
RWRNE

WEATHER ROUNDUP FOR NEBRASKA
NATIONAL WEATHER SERVICE OMAHA NE
900 AM CDT SAT JUL 26 2014

NOTES: SATELLITE DATA IS BEING USED TO AUGMENT CLOUD COVER ABOVE
       12000 FEET.
       "FAIR" INDICATES FEW OR NO CLOUDS BELOW 12,000 FEET WITH NO
       SIGNIFICANT WEATHER AND/OR OBSTRUCTIONS TO VISIBILITY.

  * THESE STATIONS DO NOT REPORT WEATHER SUCH AS RAIN...SNOW OR FOG.

NEZ001>004-019>022-054>056-261500-
NEBRASKA PANHANDLE

CITY           SKY/WX    TMP DP  RH WIND       PRES   REMARKS
SCOTTSBLUFF    MOSUNNY   70  55  59 NW12      30.06R
ALLIANCE       MOSUNNY   69  54  58 W9        30.03R
CHADRON        MOSUNNY   73  52  47 CALM      30.04R
KIMBALL        SUNNY     72  46  40 NW16G23   30.10R
SIDNEY         SUNNY     73  51  46 NW14      30.08R
$$

NEZ057>060-069>072-079>082-261500-
SOUTHWEST NEBRASKA

CITY           SKY/WX    TMP DP  RH WIND       PRES   REMARKS
NORTH PLATTE   SUNNY     76  66  71 W7        29.91R
IMPERIAL       SUNNY     76  58  53 NW14      29.96R
LEXINGTON      SUNNY     77  71  79 SE5       29.89R
MCCOOK         SUNNY     75  66  73 S8        29.91R
OGALLALA       SUNNY     74  56  55 NW5G16    29.95R
$$

NEZ005>010-023>029-035>040-094-261500-
NORTH CENTRAL NEBRASKA

CITY           SKY/WX    TMP DP  RH WIND       PRES   REMARKS
VALENTINE      SUNNY     76  67  73 W10       29.87R
AINSWORTH      SUNNY     76  69  79 S8        29.86S
BROKEN BOW     SUNNY     77  71  82 SE3       29.87S
O`NEILL        SUNNY     79  71  76 SE7       29.85F
ORD            CLOUDY    75  74  96 SE8       29.85F FOG
THEDFORD       SUNNY     78  65  64 W12G17    29.89S
$$

NEZ041-046>049-061>064-073>077-083>087-261500-
SOUTH CENTRAL NEBRASKA

CITY           SKY/WX    TMP DP  RH WIND       PRES   REMARKS
GRAND ISLAND   CLOUDY    77  75  93 SE6       29.87R FOG
AURORA         CLOUDY    77  77 100 SE7       29.86R FOG
HASTINGS       CLOUDY    76  72  87 NE10      29.86F FOG
HEBRON         CLOUDY    79  74  84 E7        29.83R HAZE
HOLDREGE       SUNNY     77  70  80 E8        29.90R
KEARNEY *      SUNNY     79  72  78 NE7       29.88F
YORK           MOSUNNY   77  77 100 SE7       29.85F FOG
$$

NEZ011>018-030>034-042>045-261500-
NORTHEAST NEBRASKA

CITY           SKY/WX    TMP DP  RH WIND       PRES   REMARKS
NORFOLK        MOSUNNY   77  72  84 SE3       29.86S
ALBION         MOSUNNY   78  73  84 E5        29.85F HAZE
BLAIR          PTSUNNY   73  71  91 CALM      29.83S
COLUMBUS *     MOSUNNY   81  73  78 NE8       29.85F
FREMONT        PTSUNNY   77  74  90 N6        29.85R
WAYNE          MOSUNNY   76  73  88 NE3       29.86F
$$

NEZ050>053-065>068-078-088>093-261500-
SOUTHEAST NEBRASKA

CITY           SKY/WX    TMP DP  RH WIND       PRES   REMARKS
LINCOLN        PTSUNNY   79  72  79 CALM      29.84R
OMAHA EPPLEY   PTSUNNY   75  70  84 N6        29.83R
BEATRICE       PTSUNNY   76  75  96 NE5       29.82F
FALLS CITY     CLOUDY    78  73  84 SE5       29.79S
NEBRASKA CITY  PTSUNNY   75  75 100 NE5       29.82R
PLATTSMOUTH    PTSUNNY   74  71  91 CALM      29.82S
$$

NEZ044-045-051>053-067-261500-
OMAHA AREA

CITY           SKY/WX    TMP DP  RH WIND       PRES   REMARKS
OMAHA EPPLEY   PTSUNNY   75  70  84 N6        29.83R
BLAIR          PTSUNNY   73  71  91 CALM      29.83S
FREMONT        PTSUNNY   77  74  90 N6        29.85R
MILLARD        PTSUNNY   77  72  86 E3        29.81S
OFFUTT AFB     PTSUNNY   75  75 100 VRB6      29.82R
PLATTSMOUTH    PTSUNNY   74  71  91 CALM      29.82S
WAHOO          FAIR      76  73  90 N3        29.83S FOG
$$



USA.gov is the U.S. government's official web portal to all federal, state and local government web resources and services.